• în România
  • Lista ţărilor
  • Pe 7 zile
  • Temperatura apei
  • Hartă satelitară
  • Meteo pe hartă
  • Widget-uri
  • user-avatar
    Intrare

    Meteo pe oră la Grazhdanskoe

    Astăzi, 25 Septembrie, Marţi

    Timp Temperatura Precipitaţii Vânt Presiune Umiditate
    00:00 +18°C° 0 mm 3 m/s 727 mmHg 77%
    01:00 +18°C° 0 mm 3 m/s 727 mmHg 76%
    02:00 +17°C° 0 mm 2 m/s 726 mmHg 74%
    03:00 +17°C° 0 mm 2 m/s 726 mmHg 73%
    04:00 +17°C° 0 mm 2 m/s 726 mmHg 71%
    05:00 +17°C° 0 mm 2 m/s 726 mmHg 69%
    06:00 +17°C° 0 mm 2 m/s 726 mmHg 67%
    07:00 +19°C° 0 mm 2 m/s 726 mmHg 62%
    08:00 +23°C° 0 mm 2 m/s 726 mmHg 56%
    09:00 +25°C° 0 mm 2 m/s 726 mmHg 51%
    10:00 +26°C° 0 mm 2 m/s 725 mmHg 48%
    11:00 +28°C° 0 mm 2 m/s 725 mmHg 44%
    12:00 +29°C° 0 mm 2 m/s 725 mmHg 41%
    13:00 +30°C° 0 mm 2 m/s 725 mmHg 40%
    14:00 +30°C° 0 mm 2 m/s 725 mmHg 40%
    15:00 +30°C° 0 mm 2 m/s 725 mmHg 39%
    16:00 +28°C° 0.1 mm 3 m/s 726 mmHg 46%
    17:00 +26°C° 0.1 mm 3 m/s 726 mmHg 54%
    18:00 +24°C° 0.1 mm 3 m/s 727 mmHg 61%
    19:00 +22°C° 0.5 mm 4 m/s 727 mmHg 69%
    20:00 +20°C° 0.5 mm 4 m/s 728 mmHg 76%
    21:00 +17°C° 0.5 mm 5 m/s 728 mmHg 83%
    22:00 +18°C° 0.1 mm 4 m/s 728 mmHg 84%
    23:00 +17°C° 0.1 mm 4 m/s 729 mmHg 84%

    Mâine, 26 Septembrie, Miercuri

    Timp Temperatura Precipitaţii Vânt Presiune Umiditate
    00:00 +15°C° 0.1 mm 4 m/s 729 mmHg 84%
    01:00 +15°C° 0.1 mm 4 m/s 729 mmHg 84%
    02:00 +14°C° 0.1 mm 4 m/s 730 mmHg 84%
    03:00 +13°C° 0.1 mm 4 m/s 730 mmHg 84%
    04:00 +13°C° 0.1 mm 4 m/s 730 mmHg 83%
    05:00 +12°C° 0.1 mm 3 m/s 731 mmHg 83%
    06:00 +12°C° 0.1 mm 3 m/s 731 mmHg 82%
    07:00 +12°C° 0.2 mm 3 m/s 731 mmHg 82%
    08:00 +11°C° 0.2 mm 3 m/s 732 mmHg 82%
    09:00 +11°C° 0.2 mm 3 m/s 732 mmHg 82%
    10:00 +11°C° 0.1 mm 3 m/s 732 mmHg 81%
    11:00 +12°C° 0.1 mm 2 m/s 733 mmHg 80%
    12:00 +12°C° 0.1 mm 2 m/s 733 mmHg 79%
    13:00 +13°C° 0 mm 2 m/s 733 mmHg 76%
    14:00 +13°C° 0 mm 2 m/s 733 mmHg 73%
    15:00 +13°C° 0 mm 1 m/s 733 mmHg 71%
    16:00 +13°C° 0.1 mm 1 m/s 733 mmHg 73%
    17:00 +13°C° 0.1 mm 1 m/s 733 mmHg 74%
    18:00 +13°C° 0.1 mm 1 m/s 734 mmHg 76%
    19:00 +13°C° 0.2 mm 1 m/s 734 mmHg 78%
    20:00 +12°C° 0.2 mm 1 m/s 734 mmHg 79%
    21:00 +12°C° 0.2 mm 1 m/s 734 mmHg 81%
    22:00 +12°C° 0.1 mm 1 m/s 734 mmHg 82%
    23:00 +12°C° 0.1 mm 1 m/s 734 mmHg 83%

    Poimâine, 27 Septembrie, Joi

    Timp Temperatura Precipitaţii Vânt Presiune Umiditate
    00:00 +11°C° 0.1 mm 1 m/s 734 mmHg 84%
    01:00 +11°C° 0.1 mm 1 m/s 734 mmHg 84%
    02:00 +11°C° 0.1 mm 1 m/s 734 mmHg 85%
    03:00 +11°C° 0.1 mm 1 m/s 734 mmHg 85%
    04:00 +11°C° 0.1 mm 1 m/s 734 mmHg 86%
    05:00 +11°C° 0.1 mm 1 m/s 734 mmHg 86%
    06:00 +10°C° 0.1 mm 0 m/s 735 mmHg 87%
    07:00 +11°C° 0.3 mm 1 m/s 735 mmHg 84%
    08:00 +12°C° 0.3 mm 1 m/s 735 mmHg 81%
    09:00 +12°C° 0.3 mm 1 m/s 735 mmHg 77%
    10:00 +14°C° 0 mm 2 m/s 735 mmHg 72%
    11:00 +15°C° 0 mm 2 m/s 735 mmHg 67%
    12:00 +16°C° 0 mm 2 m/s 735 mmHg 62%
    13:00 +17°C° 0 mm 2 m/s 734 mmHg 60%
    14:00 +17°C° 0 mm 2 m/s 734 mmHg 58%
    15:00 +18°C° 0 mm 2 m/s 734 mmHg 56%
    16:00 +17°C° 0 mm 2 m/s 734 mmHg 61%
    17:00 +16°C° 0 mm 2 m/s 734 mmHg 65%
    18:00 +15°C° 0 mm 1 m/s 733 mmHg 70%
    19:00 +14°C° 0 mm 1 m/s 734 mmHg 73%
    20:00 +14°C° 0 mm 1 m/s 734 mmHg 76%
    21:00 +13°C° 0 mm 1 m/s 734 mmHg 79%
    22:00 +13°C° 0 mm 1 m/s 734 mmHg 80%
    23:00 +13°C° 0 mm 1 m/s 734 mmHg 81%

    28 Septembrie, Vineri

    Timp Temperatura Precipitaţii Vânt Presiune Umiditate
    00:00 +12°C° 0 mm 1 m/s 734 mmHg 82%
    01:00 +12°C° 0 mm 1 m/s 734 mmHg 82%
    02:00 +12°C° 0 mm 1 m/s 734 mmHg 82%
    03:00 +12°C° 0 mm 1 m/s 734 mmHg 82%
    04:00 +11°C° 0 mm 1 m/s 734 mmHg 81%
    05:00 +11°C° 0 mm 1 m/s 734 mmHg 81%
    06:00 +11°C° 0 mm 1 m/s 733 mmHg 81%
    07:00 +13°C° 0 mm 1 m/s 734 mmHg 73%
    08:00 +14°C° 0 mm 1 m/s 734 mmHg 66%
    09:00 +16°C° 0 mm 1 m/s 734 mmHg 59%
    10:00 +19°C° 0 mm 1 m/s 733 mmHg 56%
    11:00 +19°C° 0 mm 2 m/s 733 mmHg 53%
    12:00 +21°C° 0 mm 2 m/s 733 mmHg 50%
    13:00 +21°C° 0 mm 3 m/s 733 mmHg 50%
    14:00 +21°C° 0 mm 3 m/s 732 mmHg 50%
    15:00 +22°C° 0 mm 3 m/s 732 mmHg 49%
    16:00 +20°C° 0 mm 3 m/s 732 mmHg 55%
    17:00 +19°C° 0 mm 3 m/s 732 mmHg 60%
    18:00 +18°C° 0 mm 2 m/s 731 mmHg 66%
    19:00 +17°C° 0 mm 2 m/s 731 mmHg 68%
    20:00 +16°C° 0 mm 2 m/s 731 mmHg 70%
    21:00 +15°C° 0 mm 2 m/s 731 mmHg 72%
    22:00 +15°C° 0 mm 2 m/s 731 mmHg 72%
    23:00 +15°C° 0 mm 2 m/s 730 mmHg 72%

    29 Septembrie, Sâmbătă

    Timp Temperatura Precipitaţii Vânt Presiune Umiditate
    00:00 +15°C° 0 mm 2 m/s 730 mmHg 72%
    01:00 +14°C° 0 mm 2 m/s 730 mmHg 71%
    02:00 +14°C° 0 mm 2 m/s 730 mmHg 70%
    03:00 +14°C° 0 mm 1 m/s 730 mmHg 69%
    04:00 +14°C° 0 mm 1 m/s 729 mmHg 70%
    05:00 +14°C° 0 mm 1 m/s 729 mmHg 71%
    06:00 +13°C° 0 mm 1 m/s 729 mmHg 72%
    07:00 +15°C° 0 mm 2 m/s 729 mmHg 68%
    08:00 +17°C° 0 mm 2 m/s 729 mmHg 63%
    09:00 +19°C° 0 mm 2 m/s 729 mmHg 59%
    10:00 +20°C° 0 mm 3 m/s 728 mmHg 57%
    11:00 +22°C° 0 mm 3 m/s 728 mmHg 55%
    12:00 +23°C° 0 mm 4 m/s 728 mmHg 52%
    13:00 +23°C° 0 mm 4 m/s 728 mmHg 53%
    14:00 +25°C° 0 mm 4 m/s 727 mmHg 54%
    15:00 +25°C° 0 mm 4 m/s 727 mmHg 55%
    16:00 +22°C° 0 mm 4 m/s 727 mmHg 61%
    17:00 +21°C° 0 mm 3 m/s 727 mmHg 68%
    18:00 +19°C° 0 mm 3 m/s 727 mmHg 75%
    19:00 +19°C° 0 mm 2 m/s 727 mmHg 77%
    20:00 +18°C° 0 mm 2 m/s 727 mmHg 79%
    21:00 +18°C° 0 mm 2 m/s 727 mmHg 80%
    22:00 +17°C° 0 mm 2 m/s 727 mmHg 80%
    23:00 +17°C° 0 mm 2 m/s 727 mmHg 79%

    30 Septembrie, Duminică

    Timp Temperatura Precipitaţii Vânt Presiune Umiditate
    00:00 +17°C° 0 mm 2 m/s 727 mmHg 79%
    01:00 +17°C° 0 mm 2 m/s 727 mmHg 77%
    02:00 +16°C° 0 mm 2 m/s 727 mmHg 76%
    03:00 +16°C° 0 mm 2 m/s 727 mmHg 75%
    04:00 +16°C° 0 mm 1 m/s 727 mmHg 75%
    05:00 +16°C° 0 mm 1 m/s 727 mmHg 75%
    06:00 +15°C° 0 mm 1 m/s 727 mmHg 75%
    07:00 +18°C° 0 mm 1 m/s 727 mmHg 70%
    08:00 +19°C° 0 mm 2 m/s 728 mmHg 66%
    09:00 +21°C° 0 mm 2 m/s 728 mmHg 62%
    10:00 +23°C° 0 mm 2 m/s 728 mmHg 58%
    11:00 +25°C° 0 mm 3 m/s 728 mmHg 54%
    12:00 +26°C° 0 mm 3 m/s 728 mmHg 51%
    13:00 +27°C° 0 mm 3 m/s 728 mmHg 51%
    14:00 +27°C° 0 mm 4 m/s 728 mmHg 51%
    15:00 +27°C° 0 mm 4 m/s 727 mmHg 51%
    16:00 +26°C° 0 mm 4 m/s 728 mmHg 57%
    17:00 +24°C° 0 mm 3 m/s 728 mmHg 63%
    18:00 +21°C° 0 mm 3 m/s 728 mmHg 69%
    19:00 +21°C° 0 mm 3 m/s 728 mmHg 72%
    20:00 +20°C° 0 mm 3 m/s 728 mmHg 74%
    21:00 +19°C° 0 mm 3 m/s 728 mmHg 77%
    22:00 +19°C° 0 mm 3 m/s 727 mmHg 77%
    23:00 +19°C° 0 mm 3 m/s 727 mmHg 77%
    Arată mai mult